Regional Weather Roundup
Issued by NWS

Home | Current Version | Previous Version | Text Only | Print | Product List | Glossary Off
Versions: 1 2 3 4 5 6 7 8 9 10 11 12 13 14 15 16 17 18 19 20 21 22 23 24 25 26 27 28 29 30 31 32 33 34 35 36 37 38 39 40 41 42 43 44 45 46 47 48 49 50

707
ASUS43 KOAX 251202
RWRNE

WEATHER ROUNDUP FOR NEBRASKA
NATIONAL WEATHER SERVICE OMAHA NE
700 AM CDT SAT MAR 25 2017

NOTES: SATELLITE DATA IS BEING USED TO AUGMENT CLOUD COVER ABOVE
       12000 FEET.
       "FAIR" INDICATES FEW OR NO CLOUDS BELOW 12,000 FEET WITH NO
       SIGNIFICANT WEATHER AND/OR OBSTRUCTIONS TO VISIBILITY.

  * THESE STATIONS DO NOT REPORT WEATHER SUCH AS RAIN...SNOW OR FOG.

NEZ001>004-019>022-054>056-251300-
NEBRASKA PANHANDLE

CITY           SKY/WX    TMP DP  RH WIND       PRES   REMARKS
SCOTTSBLUFF    CLOUDY    30  25  81 E10       30.02F WCI  21
6HR MIN TEMP:  29; 6HR MAX TEMP:  35;

ALLIANCE       CLOUDY    25  23  92 S8        30.03S WCI  16
6HR MIN TEMP:  19; 6HR MAX TEMP:  29;

CHADRON        CLOUDY    30  26  85 S6        29.99F WCI  24
6HR MIN TEMP:  29; 6HR MAX TEMP:  43;

KIMBALL        CLOUDY    28  28  97 SW7       30.04F WCI  21
SIDNEY         CLOUDY    21  19  92 W7        30.05F WCI  12
6HR MIN TEMP:  20; 6HR MAX TEMP:  29;

$$

NEZ057>060-069>072-079>082-251300-
SOUTHWEST NEBRASKA

CITY           SKY/WX    TMP DP  RH WIND       PRES   REMARKS
NORTH PLATTE   CLOUDY    28  25  88 NW6       30.05S WCI  22
6HR MIN TEMP:  26; 6HR MAX TEMP:  37;

IMPERIAL       CLOUDY    33  27  78 NW6       30.05F WCI  28
6HR MIN TEMP:  32; 6HR MAX TEMP:  37;

LEXINGTON      CLOUDY    34  32  92 N13       30.06R WCI  25
MCCOOK         CLEAR     34  31  88 NW7       30.03S WCI  28
6HR MIN TEMP:  33; 6HR MAX TEMP:  42;

OGALLALA       CLOUDY    29  27  94 CALM      30.06S
$$

NEZ005>010-023>029-035>040-094-251300-
NORTH CENTRAL NEBRASKA

CITY           SKY/WX    TMP DP  RH WIND       PRES   REMARKS
VALENTINE      CLOUDY    23  20  88 CALM      30.07R
6HR MIN TEMP:  20; 6HR MAX TEMP:  31;

AINSWORTH      FOG       29  29 100 CALM      30.07S VSB 1/4
BROKEN BOW     CLOUDY    33  32  96 N7        30.06R WCI  27
6HR MIN TEMP:  33; 6HR MAX TEMP:  39;

O`NEILL        FOG       34  34 100 NE8       30.10R VSB 3/4 WCI  27
ORD            FOG       35  33  92 N13       30.06S VSB 1/2 WCI  26
6HR MIN TEMP:  35; 6HR MAX TEMP:  41;

THEDFORD       CLOUDY    24  23  94 CALM      30.07S
$$

NEZ041-046>049-061>064-073>077-083>087-251300-
SOUTH CENTRAL NEBRASKA

CITY           SKY/WX    TMP DP  RH WIND       PRES   REMARKS
GRAND ISLAND   CLOUDY    36  36 100 N17       30.02F WCI  26
6HR MIN TEMP:  36; 6HR MAX TEMP:  39; 6HR PCP: TRACE;

AURORA         CLOUDY    36  35  97 N20       30.01S FOG     WCI  25
HASTINGS       CLOUDY    37  35  92 N20       30.01S FOG     WCI  27
6HR MIN TEMP:  37; 6HR MAX TEMP:  40; 6HR PCP: TRACE;

HEBRON         LGT RAIN  39  37  91 N16G24    29.98R WCI  30
HOLDREGE       CLOUDY    37  36  96 N14       30.02S FOG     WCI  28
KEARNEY *      CLOUDY    37  34  87 N16       30.04R WCI  28
YORK           MIX PCPN  37  37 100 N23G30    30.01R WCI  26
$$

NEZ011>018-030>034-042>045-251300-
NORTHEAST NEBRASKA

CITY           SKY/WX    TMP DP  RH WIND       PRES   REMARKS
NORFOLK        CLOUDY    35  34  96 N12       30.05R FOG     WCI  27
6HR MIN TEMP:  35; 6HR MAX TEMP:  37;

ALBION         CLOUDY    37  34  92 N9        30.05S FOG     WCI  30
BLAIR          RAIN      39  38  96 N18G28    29.97R WCI  30
FREMONT        LGT RAIN  39  39 100 N9G22     30.01S WCI  33
TEKAMAH        LGT RAIN  40  37  89 N20G32    30.01R WCI  30
6HR MIN TEMP:  39; 6HR MAX TEMP:  42; 6HR PCP:  0.06;

WAYNE          CLOUDY    36  36  99 N13       30.05F FOG     WCI  27
$$

NEZ050>053-065>068-078-088>093-251300-
SOUTHEAST NEBRASKA

CITY           SKY/WX    TMP DP  RH WIND       PRES   REMARKS
LINCOLN        LGT RAIN  40  38  93 N18G26    29.98R WCI  31
6HR MIN TEMP:  40; 6HR MAX TEMP:  42; 6HR PCP:  0.20;

OMAHA EPPLEY   HVY RAIN  41  37  86 N14       29.97R FOG
6HR MIN TEMP:  41; 6HR MAX TEMP:  42; 6HR PCP:  0.20;

BEATRICE       RAIN      40  40  99 N15       29.95R WCI  32
FALLS CITY     CLOUDY    43  42  97 N18       29.87R FOG
6HR MIN TEMP:  43; 6HR MAX TEMP:  45; 6HR PCP:  0.07;

NEBRASKA CITY  DRIZZLE   40  40 100 N17G24    29.92R WCI  31
PLATTSMOUTH    CLOUDY    40  37  90 N13G20    29.94R WCI  33
$$

NEZ044-045-051>053-067-251300-
OMAHA AREA

CITY           SKY/WX    TMP DP  RH WIND       PRES   REMARKS
OMAHA EPPLEY   HVY RAIN  41  37  86 N14       29.97R FOG
6HR MIN TEMP:  41; 6HR MAX TEMP:  42; 6HR PCP:  0.20;

BLAIR          RAIN      39  38  96 N18G28    29.97R WCI  30
FREMONT        LGT RAIN  39  39 100 N9G22     30.01S WCI  33
MILLARD        RAIN      42  41  94 N7        29.97R
OFFUTT AFB     HVY RAIN  41  37  87 N12G18    29.95S
PLATTSMOUTH    CLOUDY    40  37  90 N13G20    29.94R WCI  33
WAHOO          LGT RAIN  39  38  94 N18G25    29.99R WCI  30
$$




USA.gov is the U.S. government's official web portal to all federal, state and local government web resources and services.